CW9244 Weather Reports


Display with metric or nautical units.
time (UTC)temp
F
wind
direction
speed
MPH
gust
MPH
rain 1hr
in
rain 24hr
in
rain mn
in
humidity
%
barometer
mb
20260503202517 55 322 2.0 4.0 0.00 0.00 0.00 39 1026.0
20260503200616 55 312 2.0 4.0 0.00 0.00 0.00 37 1025.9
20260503195715 56 324 5.0 10.0 0.00 0.00 0.00 37 1025.9
20260503194716 56 298 4.0 7.0 0.00 0.00 0.00 37 1026.0
20260503193717 55 303 3.0 5.0 0.00 0.00 0.00 36 1026.0
20260503192717 54 296 5.0 8.0 0.00 0.00 0.00 37 1026.3
20260503191716 55 289 5.0 10.0 0.00 0.00 0.00 38 1026.4
20260503190717 55 299 4.0 6.0 0.00 0.00 0.00 37 1026.1
20260503185815 55 289 7.0 14.0 0.00 0.00 0.00 37 1026.3
20260503184818 55 287 3.0 6.0 0.00 0.00 0.00 37 1026.3
20260503183817 54 283 5.0 7.0 0.00 0.00 0.00 38 1026.1
20260503182815 54 301 9.0 14.0 0.00 0.00 0.00 38 1026.0
20260503181816 56 297 4.0 7.0 0.00 0.00 0.00 37 1026.1
20260503180816 55 333 6.0 10.0 0.00 0.00 0.00 37 1025.9
20260503175817 54 281 4.0 6.0 0.00 0.00 0.00 39 1026.0
20260503174916 54 303 4.0 7.0 0.00 0.00 0.00 39 1026.1
20260503173917 54 290 3.0 5.0 0.00 0.00 0.00 40 1026.3
20260503172917 52 297 2.0 5.0 0.00 0.00 0.00 40 1026.3
20260503171017 53 308 5.0 8.0 0.00 0.00 0.00 44 1026.5
20260503160217 49 310 2.0 4.0 0.00 0.00 0.00 49 1026.8
20260503150316 51 297 5.0 7.0 0.00 0.00 0.00 47 1026.6
20260503130517 46 291 4.0 6.0 0.00 0.00 0.00 58 1026.6
20260503100116 43 323 3.0 7.0 0.00 0.00 0.00 61 1025.4
20260503090314 44 310 3.0 6.0 0.00 0.00 0.00 58 1025.4
20260503081317 45 296 3.0 4.0 0.00 0.00 0.00 54 1025.8
20260503080416 45 325 5.0 10.0 0.00 0.00 0.00 55 1025.6
20260503072516 46 344 2.0 6.0 0.00 0.00 0.00 55 1025.5
20260503071518 46 335 2.0 3.0 0.00 0.00 0.00 54 1025.7
20260503070615 47 326 2.0 4.0 0.00 0.00 0.00 54 1025.7
20260503054815 48 316 1.0 3.0 0.00 0.00 0.00 52 1026.0
20260503053817 48 337 2.0 4.0 0.00 0.00 0.00 53 1026.3
20260503052816 48 302 1.0 3.0 0.00 0.00 0.00 53 1026.3
20260503051817 49 351 2.0 4.0 0.00 0.00 0.00 52 1026.5
20260503045816 49 351 3.0 5.0 0.00 0.00 0.00 53 1026.6
20260503044816 49 332 1.0 2.0 0.00 0.00 0.00 54 1026.8
20260503043915 49 337 3.0 6.0 0.00 0.00 0.00 54 1026.4
20260503042915 49 337 1.0 3.0 0.00 0.00 0.00 54 1026.8
20260503041915 50 332 0.0 4.0 0.00 0.00 0.00 54 1026.8
20260503040919 49 336 3.0 4.0 0.00 0.00 0.00 55 1027.0
20260503040817 49 317 3.0 5.0 0.00 0.00 0.00 56 1027.0
20260503035825 49 183 0.0 1.0 0.00 0.00 0.00 57 1026.7
20260503034924 49 263 0.0 4.0 0.00 0.00 0.00 56 1026.8
20260503033925 50 337 0.0 2.0 0.00 0.00 0.00 55 1026.7
20260503032924 50 337 1.0 2.0 0.00 0.00 0.00 55 1026.4
20260503030926 50 337 3.0 5.0 0.00 0.00 0.00 56 1026.7
20260503030025 50 337 0.0 1.0 0.00 0.00 0.00 57 1026.7
20260503024025 50 333 1.0 6.0 0.00 0.00 0.00 66 1026.7
20260503023124 50 355 1.0 7.0 0.00 0.00 0.00 72 1026.8
20260503022223 50 247 1.0 2.0 0.00 0.00 0.00 79 1026.8
20260503021225 49 292 2.0 3.0 0.00 0.00 0.00 82 1026.8
20260503015323 49 90 0.0 0.0 0.00 0.00 0.00 81 1026.8
20260503014324 49 90 0.0 0.0 0.00 0.00 0.00 80 1026.5
20260503013422 49 90 0.0 0.0 0.00 0.00 0.00 79 1026.8
20260503012424 50 90 0.0 0.0 0.00 0.00 0.00 78 1026.8
20260503011424 50 90 0.0 0.0 0.00 0.00 0.00 77 1026.7
20260503010423 50 90 0.0 0.0 0.00 0.00 0.00 75 1026.5
20260503005424 51 90 0.0 0.0 0.00 0.00 0.00 74 1026.5
20260503004523 51 90 0.0 0.0 0.00 0.00 0.00 73 1026.4
20260503003524 51 90 0.0 0.0 0.00 0.00 0.00 69 1026.5
20260503002524 52 90 0.0 0.0 0.00 0.00 0.00 68 1026.4
20260503001525 52 90 0.0 0.0 0.00 0.00 0.00 66 1026.1
20260502234623 54 90 0.0 0.0 0.00 0.00 0.00 62 1026.1
20260502233625 55 90 0.0 0.0 0.00 0.00 0.00 61 1026.2
20260502232625 55 90 0.0 0.0 0.00 0.00 0.00 60 1026.1
20260502225724 56 90 0.0 0.0 0.00 0.00 0.00 58 1026.0
20260502224724 56 90 0.0 0.0 0.00 0.00 0.00 59 1026.3
20260502223727 56 90 0.0 0.0 0.00 0.00 0.00 59 1026.0
20260502222823 56 90 0.0 1.0 0.00 0.00 0.00 59 1026.1
20260502221825 57 180 0.0 0.0 0.00 0.00 0.00 59 1026.1
20260502220824 57 103 1.0 3.0 0.00 0.00 0.00 60 1026.0
20260502215823 57 90 1.0 2.0 0.00 0.00 0.00 60 1026.0
20260502214825 56 225 0.0 0.0 0.00 0.00 0.00 59 1026.1
20260502213825 57 315 1.0 2.0 0.00 0.00 0.00 60 1026.0
20260502212823 56 67 0.0 0.0 0.00 0.00 0.00 59 1025.9
20260502210924 56 3 0.0 3.0 0.00 0.00 0.00 61 1026.0
20260502203924 55 255 0.0 1.0 0.00 0.00 0.00 64 1025.9